Tracking 28779 objects as of 14-Apr-2024
HD Live streaming from Space Station
objects crossing your sky now

BRO-7

Track BRO-7 now!
10-day predictions
BRO-7 is classified as:


NORAD ID: 52174
Int'l Code: 2022-033T
Perigee: 452.4 km
Apogee: 467.3 km
Inclination: 97.3 °
Period: 93.6 minutes
Semi major axis: 6830 km
RCS: Unknown
Launch date: April 1, 2022
Source: France (FR)
Launch site: AIR FORCE EASTERN TEST RANGE (AFETR)

Uplink (MHz):
Downlink (MHz): 401.735
Beacon (MHz):
Mode: 9600bps FSK
Call sign:
Status: Active

Your satellite tracking list
Your tracking list is empty




NASA's NSSDC Master Catalog

Two Line Element Set (TLE):
1 52174U 22033T   24105.19229115  .00017986  00000-0  48545-3 0  9991
2 52174  97.3268 188.9284 0010861 153.5490 206.6312 15.37772291113536
Source of the keplerian elements: AFSPC